DW9433 Weather Reports


time (UTC)temp
F
wind
direction
speed
knots
gust
knots
rain 1hr
in
rain 24hr
in
rain mn
in
humidity
%
barometer
mb
20260509081523 60 175 0.0 0.0 0.00 0.00 0.00 84 1009.1
20260509080022 60 175 0.0 0.0 0.00 0.00 0.00 84 1008.8
20260509074521 60 176 0.0 1.7 0.00 0.00 0.00 84 1009.0
20260509073028 60 154 0.0 0.0 0.00 0.00 0.00 83 1008.9
20260509071517 61 154 0.0 0.0 0.00 0.00 0.00 83 1008.6
20260509070015 61 154 0.0 0.0 0.00 0.00 0.00 81 1009.0
20260509064513 62 154 0.0 0.0 0.00 0.00 0.00 81 1009.2
20260509063020 62 225 0.0 0.0 0.00 0.00 0.00 80 1009.0
20260509061510 62 177 0.0 0.0 0.00 0.00 0.00 80 1009.2
20260509060008 62 201 0.0 1.7 0.00 0.00 0.00 80 1009.6
20260509054507 62 178 0.0 0.0 0.00 0.00 0.00 79 1009.4
20260509053004 62 188 0.0 2.6 0.00 0.00 0.00 78 1009.8
20260509051502 63 191 0.0 0.0 0.00 0.00 0.00 78 1010.3
20260509050100 63 139 0.0 2.6 0.00 0.00 0.00 77 1010.3
20260509044659 63 169 0.0 0.9 0.00 0.00 0.00 77 1010.4
20260509043139 63 169 0.0 0.0 0.00 0.00 0.00 77 1010.7
20260509041559 63 169 0.0 0.0 0.00 0.00 0.00 76 1010.8
20260509034557 64 155 0.0 0.0 0.00 0.00 0.00 75 1010.6
20260509033058 64 155 0.0 0.0 0.00 0.00 0.00 74 1010.1
20260509031601 64 139 0.0 0.0 0.00 0.00 0.00 73 1010.2
20260509030112 65 139 0.0 0.0 0.00 0.00 0.00 72 1010.2
20260509024601 65 139 0.0 0.0 0.00 0.00 0.00 70 1010.4
20260509023059 66 139 0.0 0.0 0.00 0.00 0.00 69 1010.6
20260509021556 66 139 0.0 0.0 0.00 0.00 0.00 66 1010.3
20260509020105 67 178 0.0 0.0 0.00 0.00 0.00 64 1010.0
20260509014556 67 199 0.0 0.0 0.00 0.00 0.00 63 1009.9
20260509013059 68 199 0.0 0.0 0.00 0.00 0.00 62 1009.9
20260509011557 69 199 0.0 0.0 0.00 0.00 0.00 60 1009.9
20260509010053 70 199 0.0 0.0 0.00 0.00 0.00 58 1009.9
20260509004558 71 205 0.0 0.0 0.00 0.00 0.00 55 1009.9
20260509003056 71 205 0.0 0.0 0.00 0.00 0.00 54 1009.8
20260509001551 72 316 0.0 0.0 0.00 0.00 0.00 53 1009.7
20260509000051 73 190 0.0 4.3 0.00 0.00 0.00 51 1009.6
20260508234551 73 171 0.0 3.5 0.00 0.00 0.00 50 1009.6
20260508233050 74 209 0.0 4.3 0.00 0.00 0.00 49 1009.6
20260508231548 75 117 0.0 5.2 0.00 0.00 0.00 48 1009.7
20260508230047 75 159 0.0 3.5 0.00 0.00 0.00 47 1009.8
20260508224604 75 183 0.0 2.6 0.00 0.00 0.00 46 1010.0
20260508223051 76 133 0.0 4.3 0.00 0.00 0.00 47 1010.0
20260508221543 76 162 0.0 3.5 0.00 0.00 0.00 45 1010.0
20260508220049 76 171 0.0 7.0 0.00 0.00 0.00 43 1010.2
20260508214541 76 210 0.0 5.2 0.00 0.00 0.00 45 1010.4
20260508213042 77 221 0.0 0.9 0.00 0.00 0.00 44 1010.3
20260508211537 77 183 0.9 5.2 0.00 0.00 0.00 43 1010.5
20260508210042 77 159 0.0 2.6 0.00 0.00 0.00 42 1010.7
20260508204536 77 188 0.0 4.3 0.00 0.00 0.00 42 1010.7
20260508203041 77 175 0.0 3.5 0.00 0.00 0.00 43 1010.9
20260508201532 77 221 0.0 7.0 0.00 0.00 0.00 41 1011.1
20260508200029 77 199 0.0 3.5 0.00 0.00 0.00 42 1011.3
20260508194535 77 360 0.9 4.3 0.00 0.00 0.00 41 1011.5
20260508193025 76 186 0.0 3.5 0.00 0.00 0.00 44 1011.5
20260508191529 76 291 0.0 3.5 0.00 0.00 0.00 44 1011.8
20260508190023 76 165 0.0 2.6 0.00 0.00 0.00 44 1011.9
20260508184522 76 126 0.0 3.5 0.00 0.00 0.00 42 1012.3
20260508183025 75 208 0.0 2.6 0.00 0.00 0.00 46 1012.8
20260508181515 74 36 0.0 1.7 0.00 0.00 0.00 48 1013.3
20260508180016 74 29 0.0 3.5 0.00 0.00 0.00 45 1013.3
20260508174510 74 178 0.0 5.2 0.00 0.00 0.00 42 1013.7
20260508173006 74 178 0.0 0.0 0.00 0.00 0.00 42 1013.9
20260508171503 73 166 0.0 3.5 0.00 0.00 0.00 45 1014.3
20260508170059 73 355 0.0 3.5 0.00 0.00 0.00 48 1014.6
20260508164557 73 229 0.0 5.2 0.00 0.00 0.00 46 1014.9
20260508163054 72 12 0.0 3.5 0.00 0.00 0.00 44 1015.2
20260508161557 72 44 0.0 6.1 0.00 0.00 0.00 49 1015.4
20260508160048 71 310 0.0 2.6 0.00 0.00 0.00 51 1015.5
20260508154605 71 28 0.0 4.3 0.00 0.00 0.00 50 1015.5
20260508153045 70 159 0.0 0.9 0.00 0.00 0.00 53 1015.7
20260508151540 69 140 0.9 4.3 0.00 0.00 0.00 54 1016.0
20260508150053 68 212 0.0 3.5 0.00 0.00 0.00 54 1016.2
20260508144535 67 159 0.0 5.2 0.00 0.00 0.00 59 1016.2
20260508143046 66 170 0.0 5.2 0.00 0.00 0.00 59 1016.4
20260508141530 65 142 0.0 0.9 0.00 0.00 0.00 61 1016.5
20260508140028 64 180 0.0 0.9 0.00 0.00 0.00 64 1016.4
20260508134521 62 169 0.0 0.9 0.00 0.00 0.00 67 1016.3
20260508133018 60 164 0.0 0.9 0.00 0.00 0.00 71 1016.6
20260508131513 58 160 0.0 0.9 0.00 0.00 0.00 73 1016.9
20260508130009 56 140 0.0 0.0 0.00 0.00 0.00 82 1016.6
20260508124505 54 144 0.0 0.0 0.00 0.00 0.00 87 1016.7
20260508123101 52 144 0.0 0.0 0.00 0.00 0.00 92 1016.7
20260508121558 49 144 0.0 0.0 0.00 0.00 0.00 95 1016.8
20260508120101 48 144 0.0 0.0 0.00 0.00 0.00 95 1016.7
20260508114555 47 144 0.0 0.0 0.00 0.00 0.00 96 1016.5
20260508113057 46 144 0.0 0.0 0.00 0.00 0.00 94 1016.3
20260508111601 45 144 0.0 0.0 0.00 0.00 0.00 94 1016.0
20260508110051 45 144 0.0 0.0 0.00 0.00 0.00 93 1016.0
20260508104550 45 144 0.0 0.0 0.00 0.00 0.00 93 1015.8
20260508103053 46 144 0.0 0.0 0.00 0.00 0.00 93 1016.0
20260508101550 46 144 0.0 0.0 0.00 0.00 0.00 93 1016.0
20260508100046 46 144 0.0 0.0 0.00 0.00 0.00 93 1016.0
20260508094548 46 144 0.0 0.0 0.00 0.00 0.00 93 1015.8
20260508093048 47 144 0.0 0.0 0.00 0.00 0.00 93 1015.8
20260508091556 47 144 0.0 0.0 0.00 0.00 0.00 93 1015.8
20260508090042 47 144 0.0 0.0 0.00 0.00 0.00 93 1015.6
20260508084541 48 144 0.0 0.0 0.00 0.00 0.00 93 1015.5
20260508083050 48 144 0.0 0.0 0.00 0.00 0.00 93 1015.4